Weather in Sarga

Russia / Sverdlovsk Oblast     57°11′51″N   58°56′26″E
temp.,
°C
wind,
m/s
gust,
m/s
humid.,
%
clouds,
%
prec.,
mm/h
press.,
hPa
HPBL,
m
8 august, mon
mon823:00+17nne008357 0.0 102011
02:00+17nne117963 0.0 102011
05:00+17n117987 0.0 102011
08:00+20n116812 0.0 1020125
11:00+26n124842 0.0 1020884
14:00+28n2338100 0.0 10192741
17:00+21ese116799 0.0 101919
20:00+20w116688 0.0 101911
9 august, tue
tue923:00+18nnw22725 0.0 102016
02:00+16nw11815 0.0 102011
05:00+15nw11877 0.1 102011
08:00+19n018219 0.5 1020104
11:00+23n116589 0.5 1020360
14:00+25nw125499 0.0 1019517
17:00+27wnw234453 0.0 10181130
20:00+22ne117193 0.0 101814
10 august, wed
wed1023:00+19ese1176100 0.0 101923
02:00+16e009031 0.0 101911
05:00+15nne119592 0.0 101911
08:00+18ese128042 0.0 1020158
11:00+24ese1260100 0.0 1019733
14:00+26ese1153100 0.5 10191392
17:00+23s136798 0.9 1018132
20:00+21ese22785 0.1 101827
11 august, thu
thu1123:00+17sse1190100 0.8 101811
02:00+16sw1193100 0.7 101811
05:00+16ssw229547 0.7 101823
08:00+19sw24875 0.0 1018174
11:00+24wsw345972 0.1 1017833
14:00+22sw3682100 3.4 1016548
17:00+24ssw1576100 5.8 1014643
20:00+16nnw3897100 3.3 1015216
12 august, fri
fri1223:00+15s1399100 11.8 101595
02:00+15wsw1197100 4.1 101327
05:00+14w3999100 4.1 1013413
08:00+13w399524 0.1 1013473
11:00+15wnw577684 0.1 1014911
14:00+14wnw498957 0.2 1014728
17:00+18w595866 0.3 10141127
20:00+16w5116676 0.0 1014882